Vertical_Velocity
4 -2 -2 -0 3 2 1 1 3 1 1 -2 -0 -4 -3 -3 -4 -3 0 -0 -1 -1 -2 -2 2 1 -0 -2 -3 -3 -1 -2 -1 -2 -4 -2 -1 0 3 -1 3 -0 2
-3 -2 -3 -3 1 5 5 2 2 2 0 0 -1 -0 -2 -1 0 -2 -1 -2 2 3 -2 2 -1 -0 -1 -4 1 2 1 2 -2 -8 -4 -4 3 -2 -2 3 2 1 -2
4 -0 8 3 2 2 4 3 1 -0 2 1 3 -1 -2 -3 -2 -2 -1 -0 -3 3 -3 3 -3 -1 -1 0 2 0 -1 -0 1 -5 3 -0 -4 0 -1 -2 0 2 5
-3 3 5 3 2 3 0 1 1 1 2 2 3 4 1 0 -4 -1 -2 -0 -5 1 -0 -2 3 4 1 4 -1 -1 -6 -3 -6 2 4 3 -2 -2 3 3 1 -4 -3
-4 2 -0 3 -0 3 2 5 1 -0 -1 3 2 4 3 -4 -2 -1 3 2 3 3 -1 2 0 2 5 -0 1 -7 -6 -5 -8 7 4 1 0 -2 -2 -2 -2 1 2
4 -1 -6 -1 0 1 -1 3 6 1 5 2 0 7 5 -0 -2 0 -1 -1 -2 -0 1 0 -3 1 -1 -3 -4 -2 -0 -5 14 3 6 0 -2 0 -0 -1 -2 -1 -3
-0 1 2 9 6 1 6 -5 1 5 0 1 -2 3 4 -6 -5 0 -3 -1 3 -2 1 1 1 -3 -3 -1 -2 1 2 -4 3 -2 1 -3 -3 4 -0 -0 -3 -3 1
11 14 10 7 11 5 2 -0 -8 6 5 -3 2 5 3 -1 -0 0 3 1 1 -1 2 -1 -5 -2 0 -0 -1 -4 -4 -8 4 -2 3 3 2 -1 -1 0 4 0 -1
2 -1 2 -1 -1 6 4 14 4 -1 4 9 -0 7 2 3 1 -2 3 1 3 -2 -1 -4 -2 0 1 -5 -1 -3 -4 -2 -3 -2 10 6 -3 -1 -2 -0 -1 -1 -3
9 5 -0 3 -5 -3 -24 8 -7 14 1 4 3 5 3 -6 -5 -5 -1 -3 -3 -1 0 3 2 0 -3 -4 2 1 3 -11 -1 4 -4 -3 -0 -1 -1 -1 -6 -0 -2
6 4 15 -6 19 -6 4 -18 -4 5 12 4 8 4 -4 5 2 5 2 3 5 3 -2 0 -1 -2 -2 4 0 1 -5 -2 4 -1 1 2 2 -2 -3 1 0 -2 -1
4 8 -2 -5 -24 -15 -29 -20 18 5 6 9 -2 2 -4 6 1 -2 1 0 -0 -0 0 2 1 -2 2 0 2 -3 -2 -5 1 0 -3 1 2 1 4 3 -1 -2 -3
5 5 10 2 16 1 -5 4 13 12 9 5 -5 0 -1 2 1 4 -2 -4 0 1 5 -1 3 1 -1 2 -1 0 -2 -0 -1 1 -0 1 0 2 3 2 -1 3 3
2 7 6 3 5 10 -3 -21 -17 6 -13 -3 -1 -9 6 -0 2 -4 3 4 -1 6 -1 1 0 -0 -3 -3 -3 -3 2 1 0 1 -2 -1 -3 0 4 1 -1 -1 -0
4 -2 -3 -3 -17 -21 -8 -13 -17 2 19 2 -5 7 5 3 -1 -1 0 1 2 2 1 4 2 -1 -4 -2 -2 2 -1 -3 -2 -2 2 -2 -2 -3 6 6 2 1 0
4 -2 -1 3 5 -3 11 -5 1 -11 -6 -3 1 0 3 -3 -1 2 -3 -1 3 2 5 1 -5 4 5 2 -4 -3 -0 -5 -5 -8 -2 -5 -1 -1 -1 -1 1 0 2
4 1 -3 -0 4 1 -3 -2 0 2 3 2 6 2 1 -1 0 0 0 -0 4 0 -2 -2 -1 1 1 -1 -2 -6 -6 -7 -3 -2 -3 0 -1 -5 -1 0 1 2 1
4 -0 -1 1 4 8 7 4 1 1 0 5 -5 -1 2 -1 -1 1 1 -1 -3 1 2 -2 2 -4 -3 -3 -2 -4 -3 -5 -4 -1 -4 0 -3 7 -5 -2 -2 -2 -1
-1 -4 -4 -6 -1 4 4 0 -1 4 5 -4 1 -4 -5 3 2 -0 2 -2 5 1 2 -1 -2 -3 3 -4 -1 -2 -6 -2 -3 -2 -2 -2 -3 -3 3 -6 -1 -1 0
-3 -1 1 1 2 2 4 3 3 2 -0 1 -0 -0 2 2 -1 -1 1 1 4 3 0 3 -1 -1 -3 -3 -0 1 3 1 0 2 1 -1 1 -2 -2 -5 3 15 -8
6 3 1 0 -3 -1 -2 -1 -1 -5 -0 1 -2 -2 -1 -2 -1 2 -2 -3 2 0 3 1 -3 -4 -1 -3 -3 -2 -2 -0 1 -0 -1 2 1 -0 -2 1 -2 -4 16
-0 -1 -1 1 -2 -1 1 -4 2 -1 2 1 3 2 1 -3 0 -1 -1 -1 -2 2 2 -3 -2 -4 -6 -4 -4 -8 5 15 -2 -4 1 -1 -1 -1 2 -2 -3 -1 -5
-0 -2 1 1 2 -2 2 1 2 2 -1 1 -2 -3 -0 0 0 1 1 -1 -2 -0 -3 -5 -3 -3 -0 -6 0 5 -2 5 -0 13 -5 -0 -0 0 -2 2 0 -1 1
-2 2 -0 -1 1 -1 -1 5 -1 -2 1 -3 3 3 -0 2 -2 -1 1 2 4 -1 -2 1 3 -3 2 3 -10 -4 -0 -1 2 7 -4 -6 -7 -3 7 -5 0 -0 -3
-3 -5 -2 -2 1 1 -1 -1 -1 -0 3 8 -5 -3 -0 -1 1 3 1 3 1 4 2 -1 -3 -3 5 2 -4 -1 1 0 -2 -1 -3 9 7 -1 -5 3 -1 -3 -0
0 -0 -2 -3 -1 -1 -1 -1 0 -0 3 -3 -3 -0 -2 1 1 6 1 1 1 0 -2 -1 1 -2 -9 1 1 -7 -2 1 7 3 4 1 3 -5 -1 -4 -0 0 0
Height
1517 1519 1523 1528 1531 1534 1537 1541 1544 1545 1548 1550 1551 1554 1556 1558 1560 1562 1563 1565 1567 1568 1568 1570 1570 1571 1571 1572 1573 1573 1573 1574 1572 1570 1572 1572 1571 1568 1569 1568 1569 1567 1566
1516 1520 1522 1527 1532 1536 1538 1541 1544 1546 1549 1550 1552 1555 1557 1559 1561 1564 1566 1568 1570 1571 1571 1572 1573 1573 1575 1574 1576 1575 1575 1575 1574 1573 1576 1574 1573 1571 1573 1572 1570 1569 1568
1515 1519 1523 1527 1532 1537 1540 1543 1545 1548 1551 1552 1554 1556 1559 1561 1563 1567 1568 1571 1573 1574 1574 1574 1575 1576 1577 1577 1577 1577 1577 1578 1578 1578 1580 1579 1576 1575 1574 1573 1573 1572 1570
1515 1522 1526 1528 1533 1537 1542 1544 1547 1549 1552 1554 1556 1557 1561 1563 1566 1568 1571 1573 1575 1576 1577 1577 1578 1579 1579 1579 1579 1579 1579 1581 1582 1583 1582 1583 1580 1578 1577 1575 1574 1573 1572
1515 1520 1526 1530 1534 1539 1543 1546 1548 1550 1554 1557 1558 1559 1562 1565 1569 1570 1573 1575 1577 1578 1580 1580 1580 1582 1581 1581 1580 1582 1582 1584 1584 1586 1584 1584 1584 1580 1578 1577 1576 1575 1575
1515 1520 1524 1530 1535 1539 1544 1547 1549 1552 1555 1558 1561 1562 1563 1567 1571 1574 1575 1578 1579 1580 1582 1583 1583 1584 1584 1583 1584 1585 1585 1585 1587 1586 1586 1583 1584 1581 1579 1577 1577 1576 1575
1515 1519 1524 1529 1534 1539 1542 1545 1551 1553 1556 1560 1562 1564 1566 1569 1572 1575 1578 1580 1581 1582 1584 1584 1585 1586 1586 1586 1587 1587 1587 1586 1589 1588 1588 1586 1584 1581 1580 1579 1579 1578 1577
1515 1519 1524 1529 1535 1538 1541 1545 1550 1553 1557 1561 1565 1567 1568 1571 1575 1578 1581 1582 1583 1585 1586 1586 1587 1588 1588 1588 1589 1589 1588 1588 1590 1590 1590 1586 1583 1582 1581 1582 1579 1577 1578
1515 1519 1522 1527 1533 1539 1543 1545 1551 1554 1558 1564 1566 1568 1570 1574 1577 1581 1583 1584 1586 1587 1587 1588 1589 1589 1590 1590 1589 1589 1589 1588 1591 1590 1590 1588 1584 1583 1583 1581 1581 1578 1578
1516 1519 1523 1529 1534 1541 1544 1550 1555 1556 1560 1563 1569 1571 1573 1576 1580 1582 1585 1586 1588 1589 1589 1590 1589 1589 1591 1591 1591 1590 1588 1589 1592 1591 1589 1587 1584 1584 1584 1582 1582 1581 1579
1518 1520 1522 1527 1530 1536 1545 1552 1556 1560 1563 1565 1571 1573 1575 1579 1581 1585 1586 1588 1589 1590 1589 1591 1591 1592 1592 1592 1590 1590 1590 1591 1592 1592 1590 1586 1584 1584 1584 1583 1581 1580 1581
1519 1521 1525 1526 1528 1532 1538 1549 1559 1561 1563 1567 1571 1574 1577 1580 1583 1586 1586 1588 1589 1591 1591 1591 1591 1591 1592 1592 1591 1590 1592 1591 1592 1592 1587 1587 1586 1585 1584 1583 1583 1581 1581
1521 1523 1525 1530 1534 1540 1550 1555 1558 1562 1564 1567 1571 1576 1579 1580 1582 1585 1587 1589 1590 1591 1591 1591 1591 1591 1592 1592 1591 1590 1592 1591 1591 1591 1587 1587 1586 1587 1586 1583 1582 1582 1580
1522 1525 1529 1534 1538 1543 1545 1552 1560 1562 1566 1570 1572 1576 1578 1580 1582 1584 1587 1588 1590 1590 1591 1591 1591 1590 1590 1590 1590 1589 1589 1590 1590 1589 1585 1585 1586 1588 1585 1583 1582 1581 1580
1525 1528 1534 1537 1541 1549 1555 1561 1566 1568 1570 1572 1574 1577 1579 1580 1582 1584 1587 1588 1590 1590 1590 1590 1589 1589 1588 1587 1588 1589 1587 1586 1586 1588 1587 1583 1583 1585 1586 1583 1582 1581 1580
1531 1534 1537 1544 1550 1555 1560 1563 1565 1567 1570 1572 1575 1576 1578 1580 1582 1583 1586 1587 1589 1589 1588 1589 1589 1589 1587 1586 1585 1587 1586 1585 1585 1585 1587 1582 1581 1582 1583 1582 1581 1580 1579
1535 1537 1542 1548 1553 1556 1560 1563 1565 1567 1569 1571 1574 1575 1577 1580 1581 1583 1585 1586 1587 1587 1585 1587 1587 1586 1586 1585 1584 1583 1584 1584 1584 1583 1583 1583 1581 1579 1580 1580 1579 1578 1577
1540 1541 1545 1549 1553 1556 1559 1561 1564 1566 1568 1571 1572 1575 1576 1578 1580 1581 1582 1584 1584 1583 1582 1585 1584 1586 1585 1584 1583 1583 1582 1582 1582 1579 1579 1580 1579 1580 1577 1576 1576 1575 1574
1541 1543 1547 1551 1553 1555 1557 1559 1562 1565 1567 1569 1571 1573 1575 1577 1578 1580 1580 1581 1581 1581 1580 1581 1581 1585 1582 1583 1583 1579 1578 1579 1577 1577 1576 1576 1575 1576 1577 1572 1572 1570 1569
1541 1543 1546 1549 1552 1554 1557 1559 1562 1563 1566 1566 1568 1571 1573 1574 1576 1578 1577 1578 1579 1578 1578 1579 1578 1581 1582 1582 1582 1579 1577 1576 1575 1575 1573 1573 1573 1572 1572 1571 1570 1568 1565
1539 1541 1544 1546 1549 1552 1555 1556 1557 1561 1563 1565 1566 1568 1570 1571 1572 1573 1573 1576 1577 1577 1577 1576 1577 1578 1578 1579 1580 1579 1575 1571 1570 1571 1571 1571 1570 1569 1568 1567 1566 1566 1564
1535 1537 1540 1542 1546 1549 1552 1554 1557 1559 1562 1562 1563 1564 1566 1567 1569 1569 1570 1571 1574 1574 1572 1574 1575 1576 1577 1577 1579 1578 1574 1572 1567 1567 1568 1567 1566 1566 1565 1563 1561 1560 1559
1530 1533 1536 1540 1543 1545 1548 1551 1553 1555 1555 1557 1559 1559 1562 1564 1565 1565 1566 1568 1569 1570 1569 1571 1571 1571 1574 1573 1573 1574 1569 1568 1566 1564 1563 1564 1563 1562 1562 1560 1558 1557 1555
1526 1530 1533 1537 1539 1542 1545 1548 1547 1551 1553 1553 1554 1556 1559 1559 1559 1560 1561 1563 1564 1565 1566 1567 1567 1568 1569 1567 1566 1567 1566 1565 1565 1563 1560 1559 1558 1558 1558 1557 1556 1554 1552
1521 1523 1527 1531 1535 1537 1538 1541 1543 1546 1549 1551 1549 1552 1553 1553 1554 1555 1556 1558 1559 1560 1561 1562 1564 1566 1564 1563 1562 1563 1563 1561 1560 1560 1557 1557 1555 1554 1554 1553 1552 1550 1549
1515 1517 1521 1524 1528 1530 1532 1534 1537 1540 1543 1543 1544 1545 1547 1548 1549 1550 1551 1552 1553 1555 1556 1558 1560 1560 1560 1558 1557 1557 1558 1558 1557 1556 1554 1553 1552 1551 1550 1549 1548 1547 1545